Location: Florence
(33.9745°N, 118.2481°W)
Time: 18:43:23
(UTC+00:00)

USA 281 - Pass Details

Date: 23 March 2023
Orbit: 1078 x 1081 km, 106.0° (Epoch: 02 June)

Event Time Altitude Azimuth Distance (km) Brightness Sun altitude
Rises 13:22:29 0° 173° (S) 3,862 6.1 -7.1°
Reaches altitude 10° 13:25:05 10° 179° (S) 2,910 5.5 -6.6°
Maximum altitude 13:31:21 48° 252° (WSW) 1,378 3.5 -5.3°
Drops below altitude 10° 13:37:40 10° 326° (NW) 2,923 5.2 -4.0°
Sets 13:40:18 0° 332° (NNW) 3,881 5.9 -3.4°
